TimeMST,TemperatureF,Dew PointF,Humidity,Sea Level PressureIn,VisibilityMPH,Wind Direction,Wind SpeedMPH,Gust SpeedMPH,PrecipitationIn,Events,Conditions,WindDirDegrees,DateUTC
12:53 AM,36.0,21.9,57,29.63,10.0,WSW,5.8,-,N/A,,Clear,250,2013-01-27 07:53:00
1:53 AM,35.1,23.0,61,29.63,10.0,West,5.8,-,N/A,,Clear,270,2013-01-27 08:53:00
2:53 AM,36.0,23.0,59,29.62,10.0,WNW,11.5,-,N/A,,Clear,290,2013-01-27 09:53:00
3:53 AM,37.0,21.9,54,29.60,10.0,WNW,10.4,-,N/A,,Clear,290,2013-01-27 10:53:00
4:53 AM,37.0,21.9,54,29.64,10.0,NNW,11.5,25.3,N/A,,Clear,340,2013-01-27 11:53:00
5:53 AM,34.0,25.0,70,29.68,10.0,NNW,20.7,28.8,N/A,,Clear,330,2013-01-27 12:53:00
6:53 AM,30.9,26.1,82,29.73,10.0,NNW,18.4,26.5,N/A,,Clear,340,2013-01-27 13:53:00
7:53 AM,30.0,27.0,88,29.75,10.0,NNW,15.0,26.5,N/A,,Partly Cloudy,340,2013-01-27 14:53:00
8:07 AM,30.2,26.6,86,29.70,10.0,NNW,25.3,29.9,N/A,,Mostly Cloudy,330,2013-01-27 15:07:00
8:30 AM,30.2,28.4,93,29.73,1.8,North,18.4,25.3,N/A,,Overcast,350,2013-01-27 15:30:00
8:32 AM,30.2,28.4,93,29.73,0.8,North,16.1,25.3,N/A,,Overcast,350,2013-01-27 15:32:00
8:45 AM,30.2,28.4,93,29.73,1.5,North,18.4,26.5,N/A,,Overcast,350,2013-01-27 15:45:00
8:47 AM,30.2,28.4,93,29.73,3.0,NNW,18.4,26.5,N/A,,Overcast,340,2013-01-27 15:47:00
8:53 AM,30.0,28.9,96,29.77,4.0,North,18.4,26.5,N/A,,Overcast,350,2013-01-27 15:53:00
9:03 AM,30.2,28.4,93,29.72,1.5,North,20.7,25.3,N/A,,Overcast,350,2013-01-27 16:03:00
9:06 AM,30.2,28.4,93,29.72,0.8,NNW,19.6,26.5,N/A,,Mist,340,2013-01-27 16:06:00
9:53 AM,30.0,28.9,96,29.78,0.2,North,20.7,-,N/A,Fog,Light Freezing Fog,350,2013-01-27 16:53:00
10:31 AM,30.2,28.4,93,29.75,2.5,North,19.6,26.5,N/A,,Overcast,350,2013-01-27 17:31:00
10:38 AM,30.2,28.4,93,29.75,10.0,North,17.3,25.3,N/A,,Overcast,350,2013-01-27 17:38:00
10:53 AM,30.9,30.0,96,29.80,10.0,North,13.8,25.3,N/A,,Overcast,350,2013-01-27 17:53:00
11:37 AM,33.8,28.4,81,29.75,10.0,North,11.5,-,N/A,,Overcast,350,2013-01-27 18:37:00
11:53 AM,33.1,28.9,85,29.79,10.0,NNW,10.4,-,N/A,,Overcast,340,2013-01-27 18:53:00
12:00 PM,35.6,28.4,75,29.75,10.0,NNW,9.2,-,N/A,,Overcast,340,2013-01-27 19:00:00
12:17 PM,33.8,28.4,81,29.74,10.0,North,9.2,-,N/A,,Overcast,360,2013-01-27 19:17:00
12:31 PM,33.8,28.4,81,29.74,10.0,NNW,10.4,-,N/A,,Overcast,340,2013-01-27 19:31:00
12:53 PM,34.0,28.9,82,29.77,10.0,North,8.1,-,N/A,,Overcast,350,2013-01-27 19:53:00
1:23 PM,33.8,28.4,81,29.73,10.0,North,6.9,-,N/A,,Overcast,360,2013-01-27 20:23:00
1:53 PM,34.0,28.9,82,29.75,4.0,North,5.8,-,0.00,Snow,Light Snow,360,2013-01-27 20:53:00
2:17 PM,33.8,28.4,81,29.71,3.0,NNW,5.8,-,0.00,Snow,Light Snow,340,2013-01-27 21:17:00
2:41 PM,33.8,30.2,87,29.71,10.0,NNW,3.5,-,0.00,,Overcast,340,2013-01-27 21:41:00
2:53 PM,35.1,30.0,82,29.73,10.0,North,5.8,-,0.00,Snow,Light Snow,10,2013-01-27 21:53:00
3:29 PM,33.8,28.4,81,29.71,10.0,North,9.2,-,0.00,,Overcast,350,2013-01-27 22:29:00
3:38 PM,33.8,30.2,87,29.71,10.0,North,6.9,-,0.00,,Overcast,350,2013-01-27 22:38:00
3:53 PM,33.1,30.0,89,29.74,10.0,North,9.2,-,0.00,,Overcast,350,2013-01-27 22:53:00
4:17 PM,30.2,28.4,93,29.71,10.0,NNW,10.4,-,N/A,,Overcast,340,2013-01-27 23:17:00
4:53 PM,30.9,28.9,92,29.75,10.0,North,6.9,-,0.00,Snow,Light Snow,350,2013-01-27 23:53:00
5:12 PM,30.2,28.4,93,29.71,1.8,North,9.2,-,0.00,,Overcast,350,2013-01-28 00:12:00
5:27 PM,30.2,28.4,93,29.72,2.5,North,8.1,-,0.00,Snow,Light Snow,360,2013-01-28 00:27:00
5:53 PM,30.0,28.0,92,29.77,4.0,North,8.1,-,0.00,Snow,Light Snow,360,2013-01-28 00:53:00
6:39 PM,28.4,28.4,100,29.72,2.0,NNW,6.9,-,0.01,Snow,Light Snow,340,2013-01-28 01:39:00
6:51 PM,28.4,26.6,93,29.72,1.5,NNW,8.1,-,0.01,Snow,Light Snow,340,2013-01-28 01:51:00
6:53 PM,28.9,28.0,96,29.78,1.2,NNW,5.8,-,0.01,Snow,Light Snow,340,2013-01-28 01:53:00
7:26 PM,28.4,26.6,93,29.71,1.0,NNW,8.1,-,0.01,Snow,Light Snow,340,2013-01-28 02:26:00
7:31 PM,28.4,26.6,93,29.71,0.8,NNW,5.8,-,0.02,Snow,Light Snow,340,2013-01-28 02:31:00
7:53 PM,28.9,27.0,92,29.79,0.2,NW,6.9,-,0.05,Fog-Snow,Heavy Snow,320,2013-01-28 02:53:00
8:06 PM,28.4,26.6,93,29.73,0.5,NW,8.1,-,0.02,Fog,Light Freezing Fog,320,2013-01-28 03:06:00
8:36 PM,28.4,26.6,93,29.74,0.8,NW,8.1,-,0.06,Snow,Light Snow,320,2013-01-28 03:36:00
8:46 PM,28.4,26.6,93,29.73,0.5,NNW,9.2,-,0.07,Fog-Snow,Snow,340,2013-01-28 03:46:00
8:53 PM,28.9,27.0,92,29.81,0.5,NNW,8.1,-,0.08,Fog-Snow,Snow,340,2013-01-28 03:53:00
9:01 PM,28.4,26.6,93,29.74,0.8,NNW,10.4,-,0.00,Snow,Light Snow,340,2013-01-28 04:01:00
9:29 PM,26.6,24.8,93,29.75,1.0,NNW,13.8,25.3,0.02,Snow,Light Snow,340,2013-01-28 04:29:00
9:44 PM,26.6,24.8,93,29.74,1.8,NNW,11.5,-,0.02,Snow,Light Snow,340,2013-01-28 04:44:00
9:53 PM,27.0,25.0,92,29.83,2.5,NNW,11.5,23.0,0.02,,Overcast,340,2013-01-28 04:53:00
10:00 PM,26.6,24.8,93,29.76,4.0,North,12.7,23.0,0.00,,Overcast,350,2013-01-28 05:00:00
10:09 PM,26.6,24.8,93,29.76,4.0,North,12.7,23.0,0.00,Snow,Light Snow,350,2013-01-28 05:09:00
10:21 PM,26.6,24.8,93,29.75,5.0,NNW,8.1,-,0.00,,Overcast,340,2013-01-28 05:21:00
10:53 PM,26.1,25.0,96,29.82,2.5,NNW,5.8,-,0.00,Snow,Light Snow,340,2013-01-28 05:53:00
11:32 PM,26.6,24.8,93,29.75,4.0,NW,10.4,-,0.01,,Mostly Cloudy,320,2013-01-28 06:32:00
11:42 PM,26.6,24.8,93,29.75,5.0,NNW,8.1,-,0.01,,Overcast,340,2013-01-28 06:42:00
11:53 PM,26.1,24.1,92,29.82,5.0,NNW,9.2,-,0.01,Snow,Light Snow,340,2013-01-28 06:53:00